| time (UTC) | temp F | wind direction | speed MPH | gust MPH | rain 1hr in | rain 24hr in | rain mn in | humidity % | barometer mb |
| 20260903164558 | 72 | 280 | 0.0 | 7.0 | 0.00 | 0.02 | 0.00 | 100 | 1018.2 |
| 20260903164032 | 72 | 0 | 0.0 | 7.0 | 0.00 | 0.02 | 0.00 | 100 | 1018.1 |
| 20260903163531 | 72 | 256 | 1.0 | 7.0 | 0.00 | 0.02 | 0.00 | 100 | 1018.0 |
| 20260903163053 | 72 | 146 | 0.0 | 12.0 | 0.00 | 0.02 | 0.00 | 100 | 1018.0 |
| 20260903162531 | 72 | 0 | 2.0 | 12.0 | 0.00 | 0.02 | 0.00 | 100 | 1018.1 |
| 20260903162034 | 72 | 0 | 0.0 | 8.0 | 0.00 | 0.02 | 0.00 | 100 | 1018.2 |
| 20260903161553 | 72 | 263 | 0.0 | 6.0 | 0.00 | 0.02 | 0.00 | 100 | 1018.3 |
| 20260903161031 | 72 | 0 | 0.0 | 9.0 | 0.00 | 0.02 | 0.00 | 100 | 1018.3 |
| 20260903160532 | 72 | 225 | 2.0 | 10.0 | 0.00 | 0.02 | 0.00 | 100 | 1018.3 |
| 20260903160052 | 72 | 0 | 1.0 | 10.0 | 0.00 | 0.02 | 0.00 | 100 | 1018.3 |
| 20260903155532 | 72 | 233 | 1.0 | 8.0 | 0.00 | 0.03 | 0.00 | 100 | 1018.4 |
| 20260903155037 | 72 | 0 | 0.0 | 7.0 | 0.00 | 0.03 | 0.00 | 100 | 1018.4 |
| 20260903154551 | 72 | 262 | 0.0 | 7.0 | 0.00 | 0.03 | 0.00 | 100 | 1018.4 |
| 20260903154036 | 72 | 0 | 0.0 | 8.0 | 0.00 | 0.03 | 0.00 | 100 | 1018.4 |
| 20260903153534 | 72 | 0 | 0.0 | 8.0 | 0.00 | 0.03 | 0.00 | 100 | 1018.4 |
| 20260903153053 | 72 | 0 | 0.0 | 9.0 | 0.00 | 0.03 | 0.00 | 100 | 1018.5 |
| 20260903152539 | 72 | 0 | 1.0 | 9.0 | 0.00 | 0.03 | 0.00 | 100 | 1018.5 |
| 20260903152038 | 72 | 241 | 3.0 | 8.0 | 0.00 | 0.03 | 0.00 | 100 | 1018.7 |
| 20260903151556 | 73 | 0 | 1.0 | 11.0 | 0.00 | 0.03 | 0.00 | 100 | 1018.6 |
| 20260903151035 | 73 | 241 | 2.0 | 11.0 | 0.00 | 0.03 | 0.00 | 100 | 1018.6 |
| 20260903150536 | 73 | 248 | 2.0 | 11.0 | 0.00 | 0.03 | 0.00 | 100 | 1018.6 |
| 20260903150053 | 73 | 209 | 2.0 | 11.0 | 0.00 | 0.03 | 0.00 | 100 | 1018.6 |
| 20260903145533 | 74 | 228 | 4.0 | 11.0 | 0.00 | 0.03 | 0.00 | 100 | 1018.4 |
| 20260903145036 | 74 | 224 | 3.0 | 11.0 | 0.00 | 0.03 | 0.00 | 100 | 1018.6 |
| 20260903144600 | 74 | 0 | 0.0 | 8.0 | 0.00 | 0.03 | 0.00 | 100 | 1018.5 |
| 20260903144033 | 74 | 155 | 0.0 | 9.0 | 0.00 | 0.03 | 0.00 | 100 | 1018.5 |
| 20260903143532 | 74 | 0 | 3.0 | 11.0 | 0.00 | 0.03 | 0.00 | 100 | 1018.5 |
| 20260903143055 | 74 | 239 | 3.0 | 11.0 | 0.00 | 0.03 | 0.00 | 100 | 1018.5 |
| 20260903142537 | 74 | 209 | 1.0 | 11.0 | 0.00 | 0.03 | 0.00 | 100 | 1018.5 |
| 20260903142036 | 74 | 0 | 0.0 | 8.0 | 0.00 | 0.03 | 0.00 | 100 | 1018.6 |
| 20260903141555 | 74 | 0 | 0.0 | 8.0 | 0.00 | 0.03 | 0.00 | 100 | 1018.6 |
| 20260903141036 | 74 | 0 | 0.0 | 8.0 | 0.00 | 0.03 | 0.00 | 100 | 1018.6 |
| 20260903140536 | 73 | 234 | 2.0 | 7.0 | 0.00 | 0.03 | 0.00 | 100 | 1018.6 |
| 20260903140055 | 73 | 0 | 0.0 | 3.0 | 0.00 | 0.03 | 0.00 | 100 | 1018.8 |
| 20260903135535 | 73 | 0 | 0.0 | 5.0 | 0.00 | 0.03 | 0.00 | 100 | 1018.8 |
| 20260903135035 | 73 | 0 | 0.0 | 8.0 | 0.00 | 0.03 | 0.00 | 100 | 1018.6 |
| 20260903134601 | 74 | 196 | 0.0 | 10.0 | 0.00 | 0.03 | 0.00 | 100 | 1018.8 |
| 20260903134033 | 74 | 0 | 1.0 | 10.0 | 0.00 | 0.03 | 0.00 | 100 | 1018.9 |
| 20260903133538 | 74 | 0 | 2.0 | 10.0 | 0.00 | 0.03 | 0.00 | 100 | 1018.6 |
| 20260903133110 | 74 | 0 | 1.0 | 10.0 | 0.00 | 0.03 | 0.00 | 100 | 1018.7 |
| 20260903132536 | 74 | 0 | 1.0 | 7.0 | 0.00 | 0.03 | 0.00 | 100 | 1018.6 |
| 20260903132034 | 73 | 0 | 0.0 | 4.0 | 0.00 | 0.03 | 0.00 | 100 | 1018.9 |
| 20260903131555 | 73 | 222 | 0.0 | 10.0 | 0.00 | 0.03 | 0.00 | 100 | 1019.1 |
| 20260903131038 | 73 | 0 | 0.0 | 10.0 | 0.00 | 0.03 | 0.00 | 100 | 1019.2 |
| 20260903130536 | 72 | 0 | 1.0 | 10.0 | 0.00 | 0.03 | 0.00 | 100 | 1019.2 |
| 20260903130121 | 73 | 0 | 1.0 | 10.0 | 0.00 | 0.03 | 0.00 | 100 | 1019.3 |
| 20260903125539 | 72 | 0 | 1.0 | 10.0 | 0.00 | 0.03 | 0.00 | 100 | 1019.3 |
| 20260903125032 | 72 | 0 | 0.0 | 10.0 | 0.00 | 0.03 | 0.00 | 100 | 1019.3 |
| 20260903124606 | 72 | 0 | 0.0 | 7.0 | 0.00 | 0.03 | 0.00 | 100 | 1019.2 |
| 20260903124036 | 73 | 0 | 2.0 | 11.0 | 0.00 | 0.03 | 0.00 | 100 | 1019.3 |
| 20260903123629 | 73 | 0 | 0.0 | 11.0 | 0.00 | 0.03 | 0.00 | 100 | 1019.2 |
| 20260903123055 | 73 | 249 | 3.0 | 14.0 | 0.00 | 0.03 | 0.00 | 100 | 1019.1 |
| 20260903122531 | 73 | 178 | 3.0 | 14.0 | 0.00 | 0.03 | 0.00 | 100 | 1019.1 |
| 20260903122032 | 73 | 0 | 1.0 | 9.0 | 0.00 | 0.03 | 0.00 | 100 | 1019.2 |
| 20260903121550 | 73 | 147 | 0.0 | 8.0 | 0.00 | 0.03 | 0.00 | 100 | 1019.1 |
| 20260903121031 | 73 | 0 | 0.0 | 9.0 | 0.00 | 0.03 | 0.00 | 100 | 1019.0 |
| 20260903120532 | 72 | 258 | 1.0 | 9.0 | 0.00 | 0.03 | 0.00 | 100 | 1019.1 |
| 20260903120047 | 72 | 185 | 1.0 | 8.0 | 0.00 | 0.03 | 0.00 | 100 | 1019.1 |
| 20260903115532 | 72 | 0 | 1.0 | 7.0 | 0.00 | 0.03 | 0.00 | 100 | 1019.1 |
| 20260903115032 | 72 | 0 | 0.0 | 7.0 | 0.00 | 0.03 | 0.00 | 100 | 1019.1 |
| 20260903114544 | 72 | 0 | 0.0 | 9.0 | 0.00 | 0.03 | 0.00 | 100 | 1019.1 |
| 20260903114031 | 71 | 0 | 0.0 | 9.0 | 0.00 | 0.03 | 0.00 | 100 | 1019.1 |
| 20260903113533 | 71 | 0 | 0.0 | 8.0 | 0.00 | 0.03 | 0.00 | 100 | 1019.2 |
| 20260903113045 | 71 | 0 | 1.0 | 8.0 | 0.00 | 0.03 | 0.00 | 100 | 1019.3 |
| 20260903112532 | 71 | 0 | 2.0 | 8.0 | 0.00 | 0.03 | 0.00 | 100 | 1019.3 |
| 20260903112032 | 71 | 262 | 0.0 | 8.0 | 0.00 | 0.03 | 0.00 | 100 | 1019.2 |
| 20260903111554 | 71 | 0 | 0.0 | 4.0 | 0.00 | 0.03 | 0.00 | 100 | 1019.2 |
| 20260903111031 | 71 | 223 | 1.0 | 4.0 | 0.00 | 0.03 | 0.00 | 100 | 1019.3 |
| 20260903110531 | 70 | 0 | 0.0 | 7.0 | 0.00 | 0.03 | 0.00 | 100 | 1019.3 |
| 20260903110050 | 70 | 179 | 0.0 | 7.0 | 0.00 | 0.03 | 0.00 | 100 | 1019.4 |
| 20260903105531 | 70 | 0 | 0.0 | 6.0 | 0.00 | 0.03 | 0.00 | 100 | 1019.4 |
| 20260903105034 | 70 | 243 | 1.0 | 9.0 | 0.00 | 0.03 | 0.00 | 100 | 1019.4 |
| 20260903104545 | 70 | 0 | 0.0 | 9.0 | 0.00 | 0.03 | 0.00 | 100 | 1019.3 |
| 20260903104032 | 70 | 257 | 1.0 | 9.0 | 0.00 | 0.03 | 0.00 | 100 | 1019.2 |
| 20260903103534 | 70 | 182 | 3.0 | 9.0 | 0.00 | 0.03 | 0.00 | 100 | 1019.1 |
| 20260903103053 | 70 | 237 | 2.0 | 9.0 | 0.00 | 0.03 | 0.00 | 100 | 1019.2 |
| 20260903102531 | 70 | 190 | 1.0 | 9.0 | 0.00 | 0.03 | 0.00 | 100 | 1019.2 |
| 20260903102032 | 69 | 129 | 2.0 | 8.0 | 0.00 | 0.03 | 0.00 | 100 | 1019.2 |
| 20260903101553 | 69 | 240 | 1.0 | 9.0 | 0.00 | 0.03 | 0.00 | 100 | 1019.3 |
| 20260903101032 | 69 | 223 | 2.0 | 9.0 | 0.00 | 0.03 | 0.00 | 100 | 1019.4 |
| 20260903100532 | 69 | 251 | 0.0 | 9.0 | 0.00 | 0.03 | 0.00 | 100 | 1019.5 |
| 20260903100046 | 69 | 0 | 2.0 | 9.0 | 0.00 | 0.03 | 0.00 | 100 | 1019.5 |
| 20260903095531 | 69 | 264 | 2.0 | 8.0 | 0.00 | 0.03 | 0.00 | 100 | 1019.5 |
| 20260903095035 | 69 | 254 | 2.0 | 9.0 | 0.00 | 0.03 | 0.00 | 100 | 1019.5 |
| 20260903094553 | 68 | 249 | 3.0 | 11.0 | 0.00 | 0.03 | 0.00 | 100 | 1019.5 |
| 20260903094032 | 68 | 0 | 3.0 | 11.0 | 0.00 | 0.03 | 0.00 | 100 | 1019.6 |
| 20260903093532 | 68 | 219 | 2.0 | 12.0 | 0.00 | 0.03 | 0.00 | 100 | 1019.6 |
| 20260903093056 | 68 | 141 | 4.0 | 12.0 | 0.00 | 0.03 | 0.00 | 100 | 1019.5 |
| 20260903092535 | 68 | 269 | 4.0 | 11.0 | 0.00 | 0.03 | 0.00 | 100 | 1019.5 |
| 20260903092032 | 68 | 306 | 3.0 | 13.0 | 0.00 | 0.03 | 0.00 | 100 | 1019.4 |
| 20260903091551 | 68 | 248 | 4.0 | 13.0 | 0.00 | 0.03 | 0.00 | 100 | 1019.4 |
| 20260903091037 | 68 | 230 | 2.0 | 11.0 | 0.00 | 0.03 | 0.00 | 100 | 1019.4 |
| 20260903090532 | 68 | 259 | 2.0 | 11.0 | 0.00 | 0.03 | 0.00 | 100 | 1019.3 |
| 20260903090057 | 68 | 205 | 3.0 | 9.0 | 0.00 | 0.03 | 0.00 | 100 | 1019.3 |
| 20260903085535 | 68 | 223 | 3.0 | 10.0 | 0.00 | 0.03 | 0.00 | 100 | 1019.1 |
| 20260903085035 | 67 | 207 | 2.0 | 11.0 | 0.00 | 0.03 | 0.00 | 100 | 1019.1 |
| 20260903084552 | 67 | 184 | 3.0 | 11.0 | 0.00 | 0.03 | 0.00 | 100 | 1019.2 |
| 20260903084035 | 67 | 175 | 3.0 | 11.0 | 0.00 | 0.03 | 0.00 | 100 | 1018.9 |
| 20260903083535 | 67 | 248 | 3.0 | 10.0 | 0.00 | 0.03 | 0.00 | 100 | 1018.8 |
| 20260903083059 | 67 | 226 | 3.0 | 10.0 | 0.00 | 0.03 | 0.00 | 100 | 1018.7 |
| 20260903082535 | 66 | 0 | 2.0 | 10.0 | 0.00 | 0.03 | 0.00 | 100 | 1018.7 |
| 20260903082035 | 66 | 224 | 2.0 | 12.0 | 0.00 | 0.03 | 0.00 | 100 | 1018.5 |
| 20260903081549 | 66 | 226 | 3.0 | 12.0 | 0.00 | 0.03 | 0.00 | 100 | 1018.6 |
| 20260903081031 | 66 | 212 | 3.0 | 8.0 | 0.00 | 0.03 | 0.00 | 100 | 1018.5 |
| 20260903080532 | 66 | 273 | 3.0 | 12.0 | 0.00 | 0.03 | 0.00 | 100 | 1018.3 |
| 20260903080056 | 65 | 240 | 3.0 | 12.0 | 0.00 | 0.03 | 0.00 | 100 | 1018.3 |
| 20260903075534 | 65 | 175 | 2.0 | 9.0 | 0.00 | 0.03 | 0.00 | 100 | 1018.3 |
| 20260903075035 | 65 | 230 | 3.0 | 9.0 | 0.00 | 0.03 | 0.00 | 100 | 1018.3 |
| 20260903074602 | 65 | 227 | 2.0 | 8.0 | 0.00 | 0.03 | 0.00 | 100 | 1018.1 |
| 20260903074035 | 65 | 269 | 1.0 | 8.0 | 0.00 | 0.03 | 0.00 | 100 | 1018.1 |
| 20260903073535 | 65 | 173 | 1.0 | 8.0 | 0.00 | 0.03 | 0.00 | 100 | 1018.2 |
| 20260903073102 | 64 | 252 | 2.0 | 11.0 | 0.00 | 0.03 | 0.00 | 100 | 1018.2 |
| 20260903072535 | 64 | 214 | 2.0 | 11.0 | 0.00 | 0.03 | 0.00 | 100 | 1018.3 |
| 20260903072036 | 64 | 257 | 2.0 | 10.0 | 0.00 | 0.03 | 0.00 | 100 | 1018.2 |
| 20260903071559 | 64 | 0 | 2.0 | 7.0 | 0.00 | 0.03 | 0.00 | 100 | 1018.4 |
| 20260903071038 | 64 | 0 | 1.0 | 7.0 | 0.00 | 0.03 | 0.00 | 100 | 1018.3 |
| 20260903070534 | 64 | 227 | 1.0 | 10.0 | 0.00 | 0.03 | 0.00 | 100 | 1018.3 |
| 20260903070054 | 64 | 190 | 1.0 | 11.0 | 0.00 | 0.03 | 0.00 | 100 | 1018.1 |
| 20260903065533 | 64 | 0 | 2.0 | 11.0 | 0.00 | 0.03 | 0.00 | 100 | 1018.1 |
| 20260903065035 | 64 | 241 | 2.0 | 10.0 | 0.00 | 0.03 | 0.00 | 100 | 1018.0 |
| 20260903064549 | 64 | 240 | 2.0 | 10.0 | 0.00 | 0.03 | 0.00 | 100 | 1018.1 |
| 20260903064032 | 64 | 184 | 2.0 | 10.0 | 0.00 | 0.03 | 0.00 | 100 | 1018.1 |
| 20260903063532 | 64 | 249 | 3.0 | 10.0 | 0.00 | 0.03 | 0.00 | 100 | 1018.0 |
| 20260903063052 | 64 | 227 | 1.0 | 7.0 | 0.00 | 0.03 | 0.00 | 100 | 1018.0 |
| 20260903062540 | 64 | 265 | 2.0 | 8.0 | 0.00 | 0.03 | 0.00 | 100 | 1018.0 |
| 20260903062033 | 64 | 259 | 2.0 | 14.0 | 0.00 | 0.03 | 0.00 | 100 | 1018.0 |
| 20260903061555 | 64 | 245 | 1.0 | 14.0 | 0.00 | 0.03 | 0.00 | 100 | 1017.8 |
| 20260903061036 | 63 | 224 | 3.0 | 14.0 | 0.00 | 0.03 | 0.00 | 100 | 1017.8 |
| 20260903060533 | 63 | 249 | 3.0 | 10.0 | 0.00 | 0.03 | 0.00 | 100 | 1017.8 |
| 20260903060124 | 63 | 240 | 2.0 | 10.0 | 0.00 | 0.03 | 0.00 | 100 | 1017.8 |
| 20260903055533 | 63 | 173 | 2.0 | 9.0 | 0.00 | 0.03 | 0.00 | 100 | 1017.8 |
| 20260903055032 | 63 | 192 | 2.0 | 9.0 | 0.00 | 0.03 | 0.00 | 100 | 1017.8 |
| 20260903054550 | 63 | 251 | 0.0 | 7.0 | 0.00 | 0.03 | 0.00 | 100 | 1017.9 |
| 20260903054035 | 63 | 261 | 0.0 | 7.0 | 0.00 | 0.03 | 0.00 | 100 | 1017.9 |
| 20260903053539 | 63 | 245 | 2.0 | 7.0 | 0.00 | 0.03 | 0.00 | 100 | 1017.9 |
| 20260903053049 | 63 | 236 | 1.0 | 7.0 | 0.00 | 0.03 | 0.00 | 100 | 1017.9 |
| 20260903052535 | 63 | 247 | 2.0 | 7.0 | 0.00 | 0.03 | 0.00 | 100 | 1017.9 |
| 20260903052032 | 63 | 251 | 0.0 | 7.0 | 0.00 | 0.03 | 0.00 | 100 | 1017.8 |
| 20260903051606 | 63 | 228 | 0.0 | 7.0 | 0.00 | 0.03 | 0.00 | 100 | 1017.8 |
| 20260903051031 | 63 | 0 | 1.0 | 7.0 | 0.00 | 0.03 | 0.00 | 100 | 1017.8 |
| 20260903050535 | 63 | 265 | 1.0 | 7.0 | 0.00 | 0.03 | 0.00 | 100 | 1017.7 |
| 20260903050050 | 63 | 233 | 2.0 | 8.0 | 0.00 | 0.03 | 0.00 | 100 | 1017.6 |
| 20260903045533 | 63 | 205 | 2.0 | 8.0 | 0.00 | 0.03 | 0.00 | 100 | 1017.6 |
| 20260903045032 | 63 | 211 | 2.0 | 7.0 | 0.00 | 0.03 | 0.00 | 100 | 1017.6 |
| 20260903044548 | 63 | 209 | 1.0 | 8.0 | 0.00 | 0.03 | 0.00 | 100 | 1017.5 |
| 20260903044032 | 63 | 0 | 2.0 | 10.0 | 0.00 | 0.03 | 0.00 | 100 | 1017.6 |
| 20260903043534 | 63 | 235 | 2.0 | 10.0 | 0.00 | 0.03 | 0.00 | 100 | 1017.7 |
| 20260903043042 | 63 | 234 | 2.0 | 9.0 | 0.00 | 0.03 | 0.00 | 100 | 1017.6 |
| 20260903042534 | 63 | 200 | 2.0 | 8.0 | 0.00 | 0.03 | 0.00 | 100 | 1017.7 |
| 20260903042032 | 63 | 252 | 1.0 | 8.0 | 0.00 | 0.03 | 0.00 | 100 | 1017.6 |
| 20260903041552 | 63 | 259 | 3.0 | 8.0 | 0.00 | 0.03 | 0.00 | 100 | 1017.6 |
| 20260903041032 | 63 | 240 | 3.0 | 9.0 | 0.00 | 0.03 | 0.00 | 100 | 1017.5 |
| 20260903040533 | 63 | 251 | 2.0 | 9.0 | 0.00 | 0.03 | 0.00 | 100 | 1017.5 |
| 20260903040059 | 63 | 0 | 2.0 | 12.0 | 0.00 | 0.03 | 0.00 | 100 | 1017.4 |
| 20260903035531 | 63 | 203 | 3.0 | 12.0 | 0.00 | 0.03 | 0.00 | 100 | 1017.3 |
| 20260903035032 | 63 | 200 | 1.0 | 10.0 | 0.00 | 0.03 | 0.00 | 100 | 1017.3 |
| 20260903034554 | 63 | 196 | 2.0 | 10.0 | 0.00 | 0.03 | 0.00 | 100 | 1017.5 |
| 20260903034031 | 63 | 239 | 2.0 | 8.0 | 0.00 | 0.03 | 0.00 | 100 | 1017.5 |
| 20260903033531 | 63 | 184 | 1.0 | 8.0 | 0.00 | 0.03 | 0.00 | 100 | 1017.5 |
| 20260903033054 | 63 | 226 | 1.0 | 7.0 | 0.00 | 0.03 | 0.00 | 100 | 1017.3 |
| 20260903032533 | 63 | 271 | 1.0 | 7.0 | 0.00 | 0.03 | 0.00 | 100 | 1017.5 |
| 20260903032034 | 63 | 196 | 1.0 | 9.0 | 0.00 | 0.03 | 0.00 | 100 | 1017.6 |
| 20260903031551 | 63 | 175 | 2.0 | 10.0 | 0.00 | 0.03 | 0.00 | 100 | 1017.6 |
| 20260903031032 | 63 | 243 | 3.0 | 12.0 | 0.00 | 0.03 | 0.00 | 100 | 1017.6 |
| 20260903030532 | 63 | 0 | 2.0 | 12.0 | 0.00 | 0.03 | 0.00 | 100 | 1017.5 |
| 20260903030049 | 63 | 232 | 3.0 | 12.0 | 0.00 | 0.03 | 0.00 | 100 | 1017.4 |
| 20260903025531 | 63 | 260 | 3.0 | 9.0 | 0.00 | 0.03 | 0.00 | 100 | 1017.5 |
| 20260903025032 | 63 | 256 | 1.0 | 9.0 | 0.00 | 0.03 | 0.00 | 100 | 1017.5 |
| 20260903024546 | 63 | 271 | 2.0 | 11.0 | 0.00 | 0.03 | 0.00 | 100 | 1017.6 |
| 20260903024032 | 63 | 0 | 2.0 | 11.0 | 0.00 | 0.03 | 0.00 | 100 | 1017.4 |
| 20260903023531 | 63 | 231 | 3.0 | 8.0 | 0.00 | 0.03 | 0.00 | 100 | 1017.5 |
| 20260903023102 | 63 | 236 | 0.0 | 8.0 | 0.00 | 0.03 | 0.00 | 100 | 1017.5 |
| 20260903022533 | 63 | 255 | 1.0 | 8.0 | 0.00 | 0.03 | 0.00 | 100 | 1017.6 |
| 20260903022035 | 63 | 249 | 2.0 | 7.0 | 0.00 | 0.03 | 0.00 | 100 | 1017.5 |
| 20260903021600 | 63 | 202 | 1.0 | 5.0 | 0.00 | 0.03 | 0.00 | 100 | 1017.6 |
| 20260903021033 | 63 | 258 | 0.0 | 4.0 | 0.00 | 0.03 | 0.00 | 100 | 1017.6 |
| 20260903020533 | 63 | 136 | 1.0 | 7.0 | 0.00 | 0.03 | 0.00 | 100 | 1017.6 |
| 20260903020048 | 63 | 273 | 1.0 | 8.0 | 0.00 | 0.03 | 0.00 | 100 | 1017.9 |
| 20260903015532 | 63 | 250 | 2.0 | 9.0 | 0.00 | 0.03 | 0.00 | 100 | 1018.0 |
| 20260903015031 | 63 | 256 | 1.0 | 9.0 | 0.00 | 0.03 | 0.00 | 100 | 1018.0 |
| 20260903014554 | 63 | 246 | 2.0 | 9.0 | 0.00 | 0.03 | 0.00 | 100 | 1017.9 |
| 20260903014031 | 63 | 261 | 1.0 | 7.0 | 0.00 | 0.03 | 0.00 | 100 | 1017.9 |
| 20260903013532 | 63 | 225 | 1.0 | 7.0 | 0.00 | 0.03 | 0.00 | 100 | 1018.0 |
| 20260903013054 | 63 | 169 | 0.0 | 7.0 | 0.00 | 0.03 | 0.00 | 100 | 1018.0 |
| 20260903012532 | 63 | 0 | 0.0 | 7.0 | 0.00 | 0.03 | 0.00 | 100 | 1018.1 |
| 20260903012033 | 63 | 0 | 1.0 | 7.0 | 0.00 | 0.03 | 0.00 | 100 | 1018.0 |
| 20260903011549 | 63 | 267 | 1.0 | 8.0 | 0.00 | 0.03 | 0.00 | 100 | 1017.9 |
| 20260903011032 | 63 | 236 | 2.0 | 8.0 | 0.00 | 0.03 | 0.00 | 100 | 1018.0 |
| 20260903010532 | 63 | 0 | 1.0 | 8.0 | 0.00 | 0.03 | 0.00 | 100 | 1018.2 |
| 20260903010056 | 63 | 225 | 1.0 | 6.0 | 0.00 | 0.03 | 0.00 | 100 | 1018.4 |
| 20260903005532 | 63 | 202 | 1.0 | 10.0 | 0.00 | 0.03 | 0.00 | 100 | 1018.5 |
| 20260903005032 | 63 | 0 | 1.0 | 10.0 | 0.00 | 0.03 | 0.00 | 100 | 1018.5 |
| 20260903004555 | 63 | 265 | 3.0 | 10.0 | 0.00 | 0.03 | 0.00 | 100 | 1018.5 |
| 20260903004051 | 63 | 226 | 3.0 | 10.0 | 0.00 | 0.03 | 0.00 | 100 | 1018.5 |
| 20260903003534 | 63 | 226 | 2.0 | 11.0 | 0.00 | 0.03 | 0.00 | 100 | 1018.4 |
| 20260903003052 | 63 | 0 | 2.0 | 11.0 | 0.00 | 0.03 | 0.00 | 100 | 1018.4 |
| 20260903002534 | 63 | 265 | 2.0 | 6.0 | 0.00 | 0.03 | 0.00 | 100 | 1018.3 |
| 20260903002032 | 63 | 231 | 1.0 | 7.0 | 0.00 | 0.03 | 0.00 | 100 | 1018.3 |
| 20260903001553 | 63 | 242 | 0.0 | 7.0 | 0.00 | 0.03 | 0.00 | 100 | 1018.3 |
| 20260903001032 | 63 | 268 | 1.0 | 3.0 | 0.00 | 0.03 | 0.00 | 100 | 1018.3 |
| 20260903000532 | 63 | 0 | 0.0 | 4.0 | 0.00 | 0.03 | 0.00 | 100 | 1017.9 |
| 20260903000046 | 63 | 0 | 0.0 | 7.0 | 0.00 | 0.03 | 0.00 | 100 | 1018.1 |
| 20260902235532 | 63 | 240 | 1.0 | 7.0 | 0.00 | 0.03 | 0.00 | 100 | 1018.0 |
| 20260902235032 | 63 | 226 | 1.0 | 6.0 | 0.00 | 0.03 | 0.00 | 100 | 1018.0 |
| 20260902234556 | 63 | 170 | 1.0 | 6.0 | 0.00 | 0.03 | 0.00 | 100 | 1018.1 |
| 20260902234035 | 63 | 185 | 1.0 | 10.0 | 0.00 | 0.03 | 0.00 | 100 | 1018.4 |
| 20260902233535 | 63 | 261 | 2.0 | 10.0 | 0.00 | 0.03 | 0.00 | 100 | 1018.4 |
| 20260902233054 | 63 | 0 | 0.0 | 5.0 | 0.00 | 0.03 | 0.00 | 100 | 1018.5 |
| 20260902232532 | 63 | 240 | 2.0 | 8.0 | 0.00 | 0.03 | 0.00 | 100 | 1018.6 |
| 20260902232032 | 63 | 219 | 2.0 | 10.0 | 0.00 | 0.03 | 0.00 | 100 | 1018.6 |
| 20260902231606 | 63 | 229 | 1.0 | 10.0 | 0.00 | 0.03 | 0.00 | 100 | 1018.7 |
| 20260902231033 | 63 | 173 | 1.0 | 10.0 | 0.00 | 0.03 | 0.00 | 100 | 1018.7 |
| 20260902230532 | 63 | 253 | 2.0 | 10.0 | 0.00 | 0.03 | 0.00 | 100 | 1018.9 |
| 20260902230046 | 63 | 246 | 3.0 | 9.0 | 0.00 | 0.03 | 0.00 | 100 | 1019.0 |
| 20260902225532 | 63 | 242 | 2.0 | 9.0 | 0.00 | 0.03 | 0.03 | 100 | 1018.9 |
| 20260902225032 | 63 | 258 | 2.0 | 8.0 | 0.00 | 0.03 | 0.03 | 100 | 1018.7 |
| 20260902224554 | 63 | 245 | 2.0 | 8.0 | 0.00 | 0.03 | 0.03 | 100 | 1018.5 |
| 20260902224031 | 63 | 234 | 2.0 | 8.0 | 0.00 | 0.03 | 0.03 | 100 | 1018.5 |
| 20260902223534 | 63 | 282 | 1.0 | 6.0 | 0.00 | 0.03 | 0.03 | 100 | 1018.3 |
| 20260902223048 | 63 | 231 | 1.0 | 7.0 | 0.00 | 0.03 | 0.03 | 100 | 1018.3 |
| 20260902222532 | 63 | 0 | 1.0 | 8.0 | 0.00 | 0.03 | 0.03 | 100 | 1018.4 |
| 20260902222032 | 63 | 242 | 1.0 | 8.0 | 0.00 | 0.03 | 0.03 | 100 | 1018.5 |
| 20260902221558 | 63 | 231 | 2.0 | 7.0 | 0.00 | 0.03 | 0.03 | 100 | 1018.5 |
| 20260902221032 | 63 | 252 | 1.0 | 7.0 | 0.00 | 0.03 | 0.03 | 100 | 1018.4 |
| 20260902220532 | 63 | 247 | 2.0 | 11.0 | 0.00 | 0.03 | 0.03 | 100 | 1018.3 |
| 20260902220106 | 63 | 187 | 3.0 | 11.0 | 0.00 | 0.03 | 0.03 | 100 | 1018.4 |
| 20260902215534 | 63 | 343 | 1.0 | 8.0 | 0.00 | 0.03 | 0.03 | 100 | 1018.4 |
| 20260902215032 | 63 | 244 | 1.0 | 5.0 | 0.00 | 0.03 | 0.03 | 100 | 1018.4 |
| 20260902214551 | 63 | 234 | 1.0 | 10.0 | 0.00 | 0.03 | 0.03 | 100 | 1018.4 |
| 20260902214032 | 63 | 238 | 1.0 | 10.0 | 0.00 | 0.03 | 0.03 | 100 | 1018.5 |
| 20260902213533 | 63 | 254 | 3.0 | 8.0 | 0.00 | 0.03 | 0.03 | 100 | 1018.4 |
| 20260902213046 | 63 | 220 | 2.0 | 10.0 | 0.00 | 0.03 | 0.03 | 100 | 1018.6 |
| 20260902212532 | 63 | 212 | 1.0 | 10.0 | 0.00 | 0.03 | 0.03 | 100 | 1018.6 |
| 20260902212032 | 63 | 227 | 3.0 | 9.0 | 0.00 | 0.03 | 0.03 | 100 | 1018.5 |
| 20260902211555 | 63 | 224 | 3.0 | 8.0 | 0.00 | 0.03 | 0.03 | 100 | 1018.6 |
| 20260902211036 | 63 | 0 | 2.0 | 10.0 | 0.00 | 0.03 | 0.03 | 100 | 1018.5 |
| 20260902210535 | 63 | 264 | 3.0 | 10.0 | 0.00 | 0.03 | 0.03 | 100 | 1018.4 |
| 20260902210055 | 63 | 196 | 2.0 | 8.0 | 0.00 | 0.03 | 0.03 | 100 | 1018.5 |
| 20260902205531 | 63 | 252 | 2.0 | 10.0 | 0.00 | 0.03 | 0.03 | 100 | 1018.4 |
| 20260902205032 | 63 | 242 | 3.0 | 10.0 | 0.00 | 0.03 | 0.03 | 100 | 1018.2 |
| 20260902204554 | 63 | 253 | 2.0 | 12.0 | 0.00 | 0.03 | 0.03 | 100 | 1018.2 |
| 20260902204033 | 63 | 257 | 2.0 | 12.0 | 0.00 | 0.03 | 0.03 | 100 | 1018.2 |
| 20260902203535 | 63 | 244 | 3.0 | 12.0 | 0.00 | 0.03 | 0.03 | 100 | 1018.3 |
| 20260902203057 | 63 | 247 | 2.0 | 7.0 | 0.00 | 0.03 | 0.03 | 100 | 1018.5 |
| 20260902202532 | 63 | 197 | 2.0 | 10.0 | 0.00 | 0.03 | 0.03 | 100 | 1018.5 |
| 20260902202032 | 63 | 0 | 1.0 | 10.0 | 0.00 | 0.03 | 0.03 | 100 | 1018.5 |
| 20260902201554 | 63 | 245 | 2.0 | 10.0 | 0.00 | 0.03 | 0.03 | 100 | 1018.3 |
| 20260902201033 | 63 | 261 | 2.0 | 10.0 | 0.00 | 0.03 | 0.03 | 100 | 1018.2 |
| 20260902200533 | 63 | 238 | 2.0 | 9.0 | 0.00 | 0.03 | 0.03 | 100 | 1018.2 |
| 20260902200045 | 63 | 153 | 2.0 | 9.0 | 0.00 | 0.03 | 0.03 | 100 | 1018.2 |
| 20260902195533 | 63 | 254 | 2.0 | 9.0 | 0.00 | 0.03 | 0.03 | 100 | 1018.3 |
| 20260902195033 | 63 | 189 | 2.0 | 10.0 | 0.00 | 0.03 | 0.03 | 100 | 1018.3 |
| 20260902194543 | 63 | 179 | 3.0 | 10.0 | 0.00 | 0.03 | 0.03 | 100 | 1018.3 |
| 20260902194032 | 63 | 123 | 1.0 | 8.0 | 0.00 | 0.03 | 0.03 | 100 | 1018.3 |
| 20260902193533 | 63 | 194 | 1.0 | 8.0 | 0.00 | 0.03 | 0.03 | 100 | 1018.2 |
| 20260902193055 | 63 | 0 | 2.0 | 12.0 | 0.00 | 0.03 | 0.03 | 100 | 1018.1 |
| 20260902192532 | 63 | 284 | 2.0 | 13.0 | 0.00 | 0.03 | 0.03 | 100 | 1018.0 |
| 20260902192032 | 63 | 240 | 2.0 | 13.0 | 0.00 | 0.03 | 0.03 | 100 | 1018.0 |
| 20260902191553 | 63 | 224 | 2.0 | 8.0 | 0.00 | 0.03 | 0.03 | 100 | 1018.0 |
| 20260902191035 | 63 | 202 | 2.0 | 8.0 | 0.00 | 0.03 | 0.03 | 100 | 1018.1 |
| 20260902190532 | 63 | 0 | 0.0 | 6.0 | 0.00 | 0.03 | 0.03 | 100 | 1018.1 |
| 20260902190049 | 63 | 270 | 1.0 | 6.0 | 0.00 | 0.03 | 0.03 | 100 | 1018.2 |
| 20260902185532 | 63 | 200 | 1.0 | 7.0 | 0.00 | 0.03 | 0.03 | 100 | 1018.2 |
| 20260902185032 | 63 | 214 | 1.0 | 7.0 | 0.00 | 0.03 | 0.03 | 100 | 1018.3 |
| 20260902184623 | 63 | 246 | 0.0 | 7.0 | 0.00 | 0.02 | 0.02 | 100 | 1018.4 |
| 20260902184032 | 63 | 0 | 1.0 | 7.0 | 0.00 | 0.02 | 0.02 | 100 | 1018.4 |
| 20260902183533 | 63 | 182 | 2.0 | 7.0 | 0.00 | 0.02 | 0.02 | 100 | 1018.4 |
| 20260902183054 | 63 | 227 | 1.0 | 7.0 | 0.00 | 0.02 | 0.02 | 100 | 1018.4 |
| 20260902182532 | 63 | 201 | 2.0 | 7.0 | 0.00 | 0.02 | 0.02 | 100 | 1018.3 |
| 20260902182032 | 62 | 204 | 1.0 | 12.0 | 0.00 | 0.02 | 0.02 | 100 | 1018.3 |
| 20260902181557 | 62 | 225 | 1.0 | 12.0 | 0.00 | 0.02 | 0.02 | 100 | 1018.4 |
| 20260902181034 | 62 | 0 | 1.0 | 8.0 | 0.00 | 0.02 | 0.02 | 100 | 1018.3 |
| 20260902180533 | 62 | 240 | 1.0 | 8.0 | 0.00 | 0.02 | 0.02 | 100 | 1018.5 |
| 20260902180101 | 62 | 200 | 1.0 | 8.0 | 0.00 | 0.02 | 0.02 | 100 | 1018.5 |
| 20260902175532 | 62 | 257 | 2.0 | 8.0 | 0.00 | 0.02 | 0.02 | 100 | 1018.5 |
| 20260902175033 | 62 | 237 | 1.0 | 8.0 | 0.00 | 0.02 | 0.02 | 100 | 1018.7 |
| 20260902174548 | 62 | 279 | 1.0 | 6.0 | 0.00 | 0.02 | 0.02 | 100 | 1018.6 |
| 20260902174032 | 62 | 0 | 1.0 | 6.0 | 0.00 | 0.01 | 0.01 | 100 | 1018.7 |
| 20260902173532 | 62 | 190 | 0.0 | 6.0 | 0.00 | 0.01 | 0.01 | 100 | 1018.7 |
| 20260902173043 | 62 | 182 | 0.0 | 6.0 | 0.00 | 0.01 | 0.01 | 100 | 1018.6 |
| 20260902172531 | 62 | 212 | 0.0 | 7.0 | 0.00 | 0.01 | 0.01 | 100 | 1018.6 |
| 20260902172032 | 62 | 215 | 1.0 | 7.0 | 0.00 | 0.01 | 0.01 | 100 | 1018.6 |
| 20260902171603 | 62 | 270 | 1.0 | 7.0 | 0.00 | 0.01 | 0.01 | 100 | 1018.7 |
| 20260902171032 | 62 | 153 | 1.0 | 8.0 | 0.00 | 0.01 | 0.01 | 100 | 1018.7 |
| 20260902170534 | 62 | 243 | 2.0 | 8.0 | 0.00 | 0.01 | 0.01 | 100 | 1018.8 |
| 20260902170051 | 63 | 255 | 1.0 | 9.0 | 0.00 | 0.01 | 0.01 | 100 | 1018.9 |
| 20260902165533 | 63 | 250 | 2.0 | 10.0 | 0.00 | 0.01 | 0.01 | 100 | 1019.1 |
| 20260902165032 | 63 | 232 | 3.0 | 10.0 | 0.00 | 0.01 | 0.01 | 100 | 1019.1 |